This is the latest recevied weather packets stored in our database for station/object AE5HO. If no packets are shown the sender has not sent any weather packets the latest 10 day(s).
| Time | Temp. | Humidity | Pressure | Rain* | Wind** | Luminosity | Snow |
|---|---|---|---|---|---|---|---|
| 1787603587 | 41.67° C | 30% | 1012.3 hPa | 0 mm | - | 43 W/m² | - |
| 1787603283 | 41.67° C | 29% | 1012.5 hPa | 0 mm | - | 44 W/m² | - |
| 1787602979 | 41.11° C | 29% | 1012.7 hPa | 0 mm | - | 44 W/m² | - |
| 1787602675 | 41.11° C | 31% | 1012.8 hPa | 0 mm | - | 46 W/m² | - |
| 1787602369 | 41.11° C | 29% | 1013.1 hPa | 0 mm | - | 50 W/m² | - |
| 1787602064 | 41.11° C | 30% | 1013 hPa | 0 mm | - | 53 W/m² | - |
| 1787601763 | 41.11° C | 31% | 1012.9 hPa | 0 mm | - | 59 W/m² | - |
| 1787601458 | 41.11° C | 31% | 1013.1 hPa | 0 mm | - | 59 W/m² | - |
| 1787601158 | 40.56° C | 31% | 1013.1 hPa | 0 mm | - | 65 W/m² | - |
| 1787600856 | 40.56° C | 32% | 1013.3 hPa | 0 mm | - | 78 W/m² | - |
| 1787600553 | 40.56° C | 32% | 1013.5 hPa | 0 mm | - | 105 W/m² | - |
| 1787600249 | 40° C | 32% | 1013.5 hPa | 0 mm | - | 116 W/m² | - |
| 1787599945 | 40° C | 33% | 1013.4 hPa | 0 mm | - | 117 W/m² | - |
| 1787599640 | 40° C | 32% | 1013.3 hPa | 0 mm | - | 127 W/m² | - |
| 1787599337 | 40.56° C | 33% | 1013.6 hPa | 0 mm | - | 137 W/m² | - |
| 1787599032 | 40.56° C | 33% | 1013.7 hPa | 0 mm | - | 155 W/m² | - |
| 1787598728 | 40° C | 33% | 1013.4 hPa | 0 mm | - | 158 W/m² | - |
| 1787598423 | 40° C | 34% | 1013.6 hPa | 0 mm | - | 149 W/m² | - |
| 1787598119 | 40° C | 32% | 1013.6 hPa | 0 mm | - | 154 W/m² | - |
| 1787597814 | 40° C | 35% | 1013.6 hPa | 0 mm | - | 150 W/m² | - |
| 1787597514 | 40° C | 33% | 1013.8 hPa | 0 mm | - | 150 W/m² | - |
| 1787597213 | 39.44° C | 34% | 1013.6 hPa | 0 mm | - | 138 W/m² | - |
| 1787596908 | 38.89° C | 34% | 1013.8 hPa | 0 mm | - | 133 W/m² | - |
| 1787596606 | 38.89° C | 34% | 1013.8 hPa | 0 mm | - | 103 W/m² | - |
| 1787596305 | 38.89° C | 34% | 1014 hPa | 0 mm | - | 93 W/m² | - |
* Rain latest hour (hover to see other rain measurements)
** Current wind speed in m/s (hover to see current wind gust speed)